Terminal Aerodrome Forecast
Issued by NWS

Home | Current Version | Previous Version | Text Only | Print | Product List | Glossary On
Versions: 1 2 3 4 5 6 7 8 9 10 11 12 13 14 15
000
FTUS45 KFGZ 241700
TAFSEZ
TAF
KSEZ 241732Z 2418/2518 VRB06KT P6SM SKC
     FM241900 34011G18KT P6SM SKC
     FM242230 02010G18KT P6SM SKC
     FM250130 05012G22KT P6SM SKC=

USA.gov is the U.S. government's official web portal to all federal, state and local government web resources and services.